NOAA NWS Hourly Roundups by Site

Regional Weather Roundup for Omaha, NE

To Select Another Site Choose from List

Select Site:  

000
ASUS43 KOAX 240010
RWRNE

WEATHER ROUNDUP FOR NEBRASKA
NATIONAL WEATHER SERVICE OMAHA NE
700 PM CDT FRI OCT 23 2020

NOTES: SATELLITE DATA IS BEING USED TO AUGMENT CLOUD COVER ABOVE
       12000 FEET.
       "FAIR" INDICATES FEW OR NO CLOUDS BELOW 12,000 FEET WITH NO
       SIGNIFICANT WEATHER AND/OR OBSTRUCTIONS TO VISIBILITY.


NEZ001>004-019>022-054>056-240100-
NEBRASKA PANHANDLE

CITY           SKY/WX    TMP DP  RH WIND       PRES   REMARKS
SCOTTSBLUFF    PTCLDY    29  23  78 E13       30.22F WCI  19
6HR MIN TEMP:  27; 6HR MAX TEMP:  33;

ALLIANCE       PTCLDY    22  17  81 SE8       30.25F WCI  12
6HR MIN TEMP:  22; 6HR MAX TEMP:  28;

CHADRON        CLOUDY    30  21  69 S13       30.26F WCI  20
6HR MIN TEMP:  24; 6HR MAX TEMP:  32;

GORDON         CLOUDY    27  19  74 S7        30.27F WCI  19
6HR MIN TEMP:  23; 6HR MAX TEMP:  27;

KIMBALL        PTCLDY    30  17  56 S13       30.20F WCI  20
SIDNEY         PTCLDY    25  17  72 SE7       30.24F WCI  17
6HR MIN TEMP:  24; 6HR MAX TEMP:  31;

$$

NEZ057>060-069>072-079>082-240100-
SOUTHWEST NEBRASKA

CITY           SKY/WX    TMP DP  RH WIND       PRES   REMARKS
NORTH PLATTE   MOCLDY    29  19  66 NE5       30.37S WCI  24
6HR MIN TEMP:  29; 6HR MAX TEMP:  33;

IMPERIAL       PTCLDY    29  17  61 E3        30.33F
6HR MIN TEMP:  29; 6HR MAX TEMP:  34;

LEXINGTON      CLOUDY    31  21  67 NE5       30.40S WCI  26
MCCOOK         PTCLDY    29  19  66 NE5       30.38F WCI  24
6HR MIN TEMP:  29; 6HR MAX TEMP:  33;

OGALLALA       MOCLDY    31  17  55 CALM      30.33S
$$

NEZ005>010-023>029-035>040-094-240100-
NORTH CENTRAL NEBRASKA

CITY           SKY/WX    TMP DP  RH WIND       PRES   REMARKS
VALENTINE      CLOUDY    27  17  66 SW7       30.38F WCI  19
6HR MIN TEMP:  26; 6HR MAX TEMP:  31;

AINSWORTH      CLOUDY    24  18  75 N6        30.39F WCI  17
BROKEN BOW     CLOUDY    28  20  71 N7        30.38F WCI  21
6HR MIN TEMP:  28; 6HR MAX TEMP:  32;

O`NEILL        CLOUDY    28  21  75 NW9       30.44R WCI  19
ORD            CLOUDY    29  20  69 N13       30.40F WCI  19
6HR MIN TEMP:  29; 6HR MAX TEMP:  32;

THEDFORD       CLOUDY    28  21  74 N7        30.38R WCI  21
$$

NEZ041-046>049-061>064-073>077-083>087-240100-
SOUTH CENTRAL NEBRASKA

CITY           SKY/WX    TMP DP  RH WIND       PRES   REMARKS
GRAND ISLAND   CLOUDY    32  22  66 N10       30.42S WCI  24
6HR MIN TEMP:  32; 6HR MAX TEMP:  37;

AURORA         CLOUDY    32  26  76 N13       30.41S WCI  23
HASTINGS       CLOUDY    32  23  69 N13       30.42R WCI  22
6HR MIN TEMP:  32; 6HR MAX TEMP:  36;

HEBRON         CLOUDY    35  24  64 N10       30.41S WCI  28
HOLDREGE       CLOUDY    31  23  71 N6        30.39F WCI  25
KEARNEY        CLOUDY    29  22  75 N10       30.42R WCI  20
YORK           CLOUDY    32  25  74 N14       30.40S WCI  22
$$

NEZ011>018-030>034-042>045-240100-
NORTHEAST NEBRASKA

CITY           SKY/WX    TMP DP  RH WIND       PRES   REMARKS
NORFOLK        CLOUDY    32  21  64 N13       30.42S WCI  22
6HR MIN TEMP:  32; 6HR MAX TEMP:  36;

ALBION         CLOUDY    31  23  72 N6        30.42S WCI  25
BLAIR          CLOUDY    34  25  68 N12G18    30.39S WCI  26
COLUMBUS       CLOUDY    32  23  69 N13       30.43F WCI  22
FREMONT        CLOUDY    35  24  65 NW10      30.42R WCI  27
TEKAMAH        CLOUDY    34  23  64 NW12G20   30.42S WCI  25
6HR MIN TEMP:  34; 6HR MAX TEMP:  39;

WAYNE          CLOUDY    32  24  72 N9        30.42S WCI  24
$$

NEZ050>053-065>068-078-088>093-240100-
SOUTHEAST NEBRASKA

CITY           SKY/WX    TMP DP  RH WIND       PRES   REMARKS
LINCOLN        CLOUDY    35  22  58 N20       30.42S WCI  24
6HR MIN TEMP:  35; 6HR MAX TEMP:  38;

OMAHA EPPLEY   CLOUDY    36  26  67 N16       30.40R WCI  26
6HR MIN TEMP:  36; 6HR MAX TEMP:  39;

BEATRICE       CLOUDY    35  26  70 N16       30.39S WCI  25
FALLS CITY     CLOUDY    38  28  67 N12       30.37R WCI  30
6HR MIN TEMP:  38; 6HR MAX TEMP:  43;

NEBRASKA CITY  CLOUDY    37  30  75 N13G20    30.37S WCI  28
PLATTSMOUTH    CLOUDY    37  26  66 N10G17    30.38S WCI  29
$$

NEZ044-045-051>053-067-240100-
OMAHA AREA

CITY           SKY/WX    TMP DP  RH WIND       PRES   REMARKS
OMAHA EPPLEY   CLOUDY    36  26  67 N16       30.40R WCI  26
6HR MIN TEMP:  36; 6HR MAX TEMP:  39;

BLAIR          CLOUDY    34  25  68 N12G18    30.39S WCI  26
FREMONT        CLOUDY    35  24  65 NW10      30.42R WCI  27
MILLARD        CLOUDY    37  24  59 N10       30.41R WCI  30
OFFUTT AFB     CLOUDY    37  25  62 N12G18    30.39S WCI  29
PLATTSMOUTH    CLOUDY    37  26  66 N10G17    30.38S WCI  29
WAHOO          CLOUDY    35  26  71 N12G20    30.41S WCI  26
$$



 

View Past Reports for Omaha, NE.

Products Courtesy of NOAA-NWS
NWS Information Parsing Script by Ken True at Saratoga Weather - Script by SE Lincoln Weather.